| time (UTC) | temp C | wind direction | speed KPH | gust KPH | rain 1hr cm | rain 24hr cm | rain mn cm | humidity % | barometer mb |
| 20260502163105 | 20 | 167 | 9.7 | 19.3 | 0.00 | 3.43 | 0.00 | 55 | 1021.8 |
| 20260502161601 | 20 | 165 | 4.8 | 11.3 | 0.00 | 3.43 | 0.00 | 59 | 1021.8 |
| 20260502160104 | 19 | 165 | 6.4 | 9.7 | 0.00 | 3.43 | 0.00 | 63 | 1021.8 |
| 20260502151613 | 17 | 165 | 6.4 | 11.3 | 0.00 | 3.76 | 0.00 | 70 | 1021.7 |
| 20260502150112 | 17 | 165 | 3.2 | 12.9 | 0.00 | 3.76 | 0.00 | 73 | 1021.8 |
| 20260502123102 | 12 | 0 | 1.6 | 8.0 | 0.00 | 4.27 | 0.00 | 91 | 1019.9 |
| 20260502121601 | 11 | 0 | 1.6 | 6.4 | 0.00 | 4.27 | 0.00 | 91 | 1019.7 |
| 20260502120114 | 11 | 0 | 1.6 | 3.2 | 0.00 | 4.27 | 0.00 | 91 | 1019.6 |
| 20260502114603 | 11 | 0 | 0.0 | 4.8 | 0.00 | 4.27 | 0.00 | 91 | 1019.4 |
| 20260502113100 | 11 | 165 | 1.6 | 3.2 | 0.00 | 4.27 | 0.00 | 90 | 1019.3 |
| 20260502111603 | 12 | 0 | 0.0 | 4.8 | 0.00 | 4.27 | 0.00 | 90 | 1019.5 |
| 20260502104600 | 12 | 0 | 0.0 | 3.2 | 0.00 | 4.27 | 0.00 | 90 | 1018.7 |
| 20260502103113 | 12 | 165 | 0.0 | 3.2 | 0.00 | 4.27 | 0.00 | 89 | 1018.5 |
| 20260502101557 | 12 | 0 | 0.0 | 1.6 | 0.00 | 4.27 | 0.00 | 89 | 1018.4 |
| 20260502100124 | 12 | 165 | 0.0 | 3.2 | 0.00 | 4.27 | 0.00 | 89 | 1018.1 |
| 20260502090112 | 13 | 165 | 1.6 | 8.0 | 0.00 | 5.26 | 0.00 | 87 | 1017.3 |
| 20260502080105 | 12 | 165 | 1.6 | 6.4 | 0.00 | 5.28 | 0.00 | 90 | 1017.2 |
| 20260502070100 | 13 | 165 | 1.6 | 8.0 | 0.00 | 5.59 | 0.00 | 90 | 1017.2 |
| 20260502064608 | 13 | 165 | 3.2 | 9.7 | 0.00 | 5.66 | 0.00 | 89 | 1017.1 |
| 20260502063059 | 13 | 165 | 3.2 | 6.4 | 0.00 | 5.66 | 0.00 | 90 | 1017.3 |
| 20260502061557 | 13 | 165 | 0.0 | 9.7 | 0.00 | 5.66 | 0.00 | 90 | 1017.0 |
| 20260502060101 | 13 | 165 | 1.6 | 9.7 | 0.00 | 5.66 | 0.00 | 91 | 1016.9 |
| 20260502054559 | 13 | 165 | 3.2 | 9.7 | 0.00 | 5.71 | 0.00 | 91 | 1016.8 |
| 20260502053058 | 13 | 165 | 3.2 | 8.0 | 0.00 | 5.71 | 0.00 | 91 | 1016.9 |
| 20260502051659 | 13 | 165 | 4.8 | 9.7 | 0.00 | 5.71 | 0.00 | 91 | 1016.5 |
| 20260502050100 | 13 | 165 | 4.8 | 8.0 | 0.00 | 5.71 | 0.00 | 92 | 1016.6 |
| 20260502044608 | 13 | 165 | 4.8 | 9.7 | 0.00 | 6.10 | 5.71 | 92 | 1016.3 |
| 20260502043110 | 13 | 165 | 3.2 | 8.0 | 0.00 | 6.10 | 5.71 | 92 | 1016.4 |
| 20260502041559 | 13 | 165 | 1.6 | 8.0 | 0.00 | 6.10 | 5.71 | 93 | 1016.8 |
| 20260502040057 | 13 | 165 | 3.2 | 12.9 | 0.00 | 6.10 | 5.71 | 92 | 1016.4 |
| 20260502034600 | 13 | 165 | 4.8 | 14.5 | 0.00 | 6.10 | 5.71 | 93 | 1016.5 |
| 20260502033101 | 13 | 165 | 3.2 | 8.0 | 0.03 | 6.10 | 5.71 | 93 | 1016.5 |
| 20260502031611 | 13 | 165 | 3.2 | 9.7 | 0.03 | 6.10 | 5.71 | 94 | 1016.1 |
| 20260502030057 | 13 | 165 | 1.6 | 8.0 | 0.03 | 6.10 | 5.71 | 94 | 1015.7 |
| 20260502024600 | 13 | 165 | 4.8 | 11.3 | 0.05 | 6.10 | 5.71 | 93 | 1015.2 |
| 20260502023057 | 13 | 165 | 3.2 | 9.7 | 0.05 | 6.07 | 5.69 | 93 | 1015.1 |
| 20260502021559 | 14 | 165 | 1.6 | 9.7 | 0.08 | 6.07 | 5.69 | 94 | 1014.7 |
| 20260502020109 | 14 | 165 | 4.8 | 11.3 | 0.10 | 6.07 | 5.69 | 94 | 1014.5 |
| 20260502014559 | 15 | 165 | 1.6 | 4.8 | 0.18 | 6.05 | 5.66 | 95 | 1014.3 |
| 20260502013102 | 15 | 0 | 1.6 | 4.8 | 0.20 | 5.99 | 5.64 | 94 | 1014.4 |
| 20260502011559 | 15 | 0 | 3.2 | 9.7 | 0.20 | 5.97 | 5.61 | 95 | 1014.3 |
| 20260502010058 | 15 | 165 | 4.8 | 9.7 | 0.20 | 5.94 | 5.59 | 94 | 1013.7 |
| 20260502004557 | 15 | 165 | 3.2 | 11.3 | 0.28 | 5.87 | 5.49 | 94 | 1013.8 |
| 20260502003057 | 15 | 0 | 1.6 | 9.7 | 0.58 | 5.82 | 5.44 | 94 | 1013.3 |
| 20260502001600 | 15 | 165 | 3.2 | 8.0 | 0.58 | 5.79 | 5.41 | 94 | 1013.0 |
| 20260501234600 | 15 | 165 | 1.6 | 8.0 | 0.51 | 5.59 | 5.21 | 94 | 1012.7 |
| 20260501233100 | 15 | 165 | 3.2 | 12.9 | 0.15 | 5.23 | 4.85 | 94 | 1013.1 |
| 20260501231603 | 15 | 165 | 6.4 | 12.9 | 0.13 | 5.21 | 4.83 | 93 | 1011.0 |
| 20260501230114 | 16 | 165 | 4.8 | 11.3 | 0.10 | 5.18 | 4.80 | 93 | 1011.6 |
| 20260501224559 | 16 | 165 | 4.8 | 14.5 | 0.00 | 5.08 | 4.70 | 92 | 1011.8 |
| 20260501223057 | 16 | 166 | 4.8 | 14.5 | 0.03 | 5.08 | 4.70 | 94 | 1011.2 |
| 20260501221558 | 16 | 166 | 4.8 | 16.1 | 0.10 | 5.08 | 4.70 | 94 | 1010.9 |
| 20260501220057 | 16 | 165 | 3.2 | 12.9 | 0.33 | 5.08 | 4.70 | 94 | 1011.1 |
| 20260501214612 | 16 | 165 | 3.2 | 11.3 | 0.41 | 5.08 | 4.70 | 95 | 1011.5 |
| 20260501213103 | 16 | 165 | 3.2 | 11.3 | 0.46 | 5.05 | 4.67 | 95 | 1011.6 |
| 20260501211600 | 16 | 166 | 3.2 | 8.0 | 0.48 | 4.98 | 4.60 | 95 | 1011.7 |
| 20260501210057 | 16 | 166 | 1.6 | 9.7 | 0.46 | 4.75 | 4.37 | 95 | 1011.8 |
| 20260501204557 | 16 | 166 | 4.8 | 12.9 | 0.41 | 4.65 | 4.27 | 95 | 1009.8 |
| 20260501203101 | 16 | 166 | 3.2 | 11.3 | 0.36 | 4.57 | 4.19 | 95 | 1010.4 |
| 20260501201603 | 16 | 165 | 3.2 | 8.0 | 0.28 | 4.50 | 4.11 | 95 | 1010.7 |
| 20260501200059 | 17 | 165 | 1.6 | 6.4 | 0.15 | 4.29 | 3.91 | 95 | 1010.4 |
| 20260501194603 | 16 | 165 | 3.2 | 8.0 | 0.23 | 4.24 | 3.86 | 95 | 1009.7 |
| 20260501193057 | 17 | 165 | 0.0 | 9.7 | 0.23 | 4.22 | 3.84 | 95 | 1010.2 |
| 20260501191607 | 17 | 165 | 1.6 | 4.8 | 0.41 | 4.22 | 3.84 | 95 | 1010.1 |
| 20260501190124 | 17 | 165 | 3.2 | 11.3 | 0.61 | 4.14 | 3.76 | 95 | 1010.8 |
| 20260501184557 | 16 | 165 | 4.8 | 8.0 | 0.53 | 4.01 | 3.63 | 95 | 1010.0 |
| 20260501183059 | 17 | 165 | 8.0 | 16.1 | 0.91 | 3.99 | 3.61 | 95 | 1009.5 |
| 20260501181601 | 16 | 166 | 4.8 | 8.0 | 0.91 | 3.81 | 3.43 | 95 | 1010.1 |
| 20260501180100 | 17 | 166 | 6.4 | 12.9 | 0.69 | 3.53 | 3.15 | 95 | 1009.6 |
| 20260501174611 | 17 | 165 | 6.4 | 12.9 | 0.66 | 3.48 | 3.10 | 95 | 1010.3 |
| 20260501173108 | 17 | 0 | 1.6 | 8.0 | 0.28 | 3.07 | 2.67 | 95 | 1011.5 |